STARLINK-36808

Last updated on Tue Mar 24 2026 00:02:05 GMT+0000 (Coordinated Universal Time)

1 67881U 26035C 26082.32379863 .00156442 00000+0 80267-3 0 9992 2 67881 97.2865 15.4538 0002335 86.0456 274.1079 15.80821227 5996
UTC large
Height (km)
Speed (km/s)
/
Latitude / Longitude
Inclination (degrees)
Orbital Period (minutes)
Azimuth
Elevation
Range (km)
Doppler Factor

Next 0 passes for location: London (51.5072 / 0.1276)

Sorry there are no passes over London.